Victoria, TX

9:24 PM CST on December 11, 2019 (GMT -0600)
Victoria Regional

Weather History for KVCT - November, 2019

Change the Weather History Date:

Friday, November 22, 2019

  Actual Average Record
Temperature  
Mean Temperature 68 °F 61 °F  
Max Temperature 82 °F 72 °F 88 °F (1917)
Min Temperature 55 °F 50 °F 32 °F (1945)
Degree Days  
Heating Degree Days 0 6  
Month to date heating degree days 166 83  
Since 1 July heating degree days 206 106  
Cooling Degree Days 4 2  
Month to date cooling degree days 47 68  
Year to date cooling degree days 3608 3111  
Growing Degree Days 18 (Base 50)    
Moisture  
Dew Point 62 °F    
Average Humidity 84    
Maximum Humidity 100    
Minimum Humidity 62    
Precipitation  
Precipitation T in 0.10 in 1.56 in (2004)
Month to date precipitation 0.54 2.44  
Year to date precipitation 24.40 38.11  
Snow  
Snow 0.00 in 0.00 in 0.00 in (2002)
Month to date snowfall 0.0 0.0  
Since 1 July snowfall 0.0 0.0  
Since 1 September snowfall 0.0 0.0  
Snow Depth 0.00 in    
Sea Level Pressure  
Sea Level Pressure 29.97 in    
Wind  
Wind Speed 6 mph ()    
Max Wind Speed 21 mph    
Max Gust Speed 27 mph    
Visibility 5.3 miles    
Events Fog , Rain    
T = Trace of Precipitation, MM = Missing Value Source: Averaged Metar Reports

Daily Weather History Graph

Daily Weather History Graph

Search for Another Location

Airport or City:

Astronomy

Nov. 22, 2019 Rise Set
Actual Time 6:56 AM CST 5:31 PM CST
Civil Twilight 6:30 AM CST 5:56 PM CST
Nautical Twilight 6:02 AM CST 6:25 PM CST
Astronomical Twilight 5:33 AM CST 6:53 PM CST
Moon 2:32 AM CST (11/22) 3:06 PM CST (11/22)
Length of Visible Light 11h 25m
Length of Day
10h 34m
Waning Crescent, 19% of the Moon is Illuminated
Nov 22
Waning Crescent
Nov 26
New
Dec 4
First Quarter
Dec 11
Full
Dec 18
Last Quarter

Hourly Weather History & Observations

Time (CST) Temp. Heat Index Dew Point Humidity Pressure Visibility Wind Dir Wind Speed Gust Speed Precip Events Conditions
12:38 AM 71.1 °F - 68.0 °F 90% 29.93 in 6.0 mi ESE 5.8 mph - N/A   Overcast
12:51 AM 70.0 °F - 68.0 °F 93% 29.91 in 6.0 mi ESE 6.9 mph - N/A   Overcast
1:19 AM 70.0 °F - 68.0 °F 93% 29.93 in 3.0 mi SE 3.5 mph - N/A   Overcast
1:23 AM 70.0 °F - 66.9 °F 90% 29.93 in 1.8 mi SE 3.5 mph - N/A   Overcast
1:30 AM 69.1 °F - 66.9 °F 93% 29.92 in 1.0 mi ESE 4.6 mph - N/A   Overcast
1:39 AM 68.0 °F - 66.0 °F 93% 29.92 in 0.8 mi East 4.6 mph - N/A   Overcast
1:51 AM 68.0 °F - 66.0 °F 93% 29.92 in 0.5 mi ENE 4.6 mph - N/A Fog Fog
2:04 AM 69.8 °F - 66.2 °F 88% 29.92 in 1.5 mi NE 4.6 mph - N/A   Overcast
2:24 AM 69.1 °F - 66.9 °F 93% 29.92 in 2.5 mi NE 3.5 mph - N/A   Overcast
2:51 AM 69.1 °F - 66.9 °F 93% 29.91 in 2.5 mi East 5.8 mph - N/A   Overcast
3:07 AM 70.0 °F - 68.0 °F 93% 29.91 in 2.0 mi East 4.6 mph - N/A   Overcast
3:21 AM 70.0 °F - 68.0 °F 93% 29.90 in 1.5 mi ESE 4.6 mph - N/A   Overcast
3:30 AM 70.0 °F - 68.0 °F 93% 29.90 in 1.0 mi East 4.6 mph - N/A   Overcast
3:39 AM 70.0 °F - 68.0 °F 93% 29.90 in 0.5 mi ESE 3.5 mph - N/A Fog Fog
3:51 AM 70.0 °F - 68.0 °F 93% 29.91 in 0.5 mi ENE 3.5 mph - N/A Fog Fog
3:58 AM 70.0 °F - 68.0 °F 93% 29.91 in 0.2 mi ENE 3.5 mph - N/A Fog Fog
4:51 AM 70.0 °F - 68.0 °F 93% 29.91 in 0.5 mi ESE 5.8 mph - N/A Fog Fog
5:51 AM 70.0 °F - 69.1 °F 97% 29.92 in 0.8 mi ESE 4.6 mph - N/A   Mist
6:31 AM 70.0 °F - 69.1 °F 97% 29.94 in 1.0 mi Calm Calm - N/A   Mist
6:44 AM 70.0 °F - 68.0 °F 93% 29.94 in 0.5 mi Calm Calm - N/A Fog Fog
6:51 AM 69.1 °F - 66.9 °F 93% 29.95 in 0.2 mi Calm Calm - N/A Fog Fog
7:06 AM 69.1 °F - 66.9 °F 93% 29.95 in 0.2 mi East 3.5 mph - N/A Fog Fog
7:41 AM 70.0 °F - 68.0 °F 93% 29.97 in 0.2 mi NE 3.5 mph - N/A Fog Fog
7:47 AM 69.8 °F - 68.0 °F 94% 29.97 in 0.2 mi ENE 3.5 mph - N/A Fog Fog
7:51 AM 70.0 °F - 69.1 °F 97% 29.97 in 0.5 mi Calm Calm - N/A Fog Fog
8:58 AM 72.0 °F - 70.0 °F 93% 30.00 in 2.0 mi Calm Calm - N/A   Overcast
9:47 AM 75.2 °F - 69.8 °F 83% 30.01 in 6.0 mi Calm Calm - N/A   Haze
9:51 AM 75.0 °F - 70.0 °F 84% 30.01 in 6.0 mi Calm Calm - N/A   Haze
9:58 AM 75.9 °F - 70.0 °F 82% 30.01 in 6.0 mi Calm Calm - N/A   Haze
10:51 AM 79.0 °F - 69.1 °F 72% 30.00 in 8.0 mi West 5.8 mph - N/A   Partly Cloudy
11:29 AM 80.1 °F 82.7 °F 68.0 °F 67% 29.99 in 10.0 mi WSW 6.9 mph - N/A   Scattered Clouds
11:51 AM 82.0 °F 84.9 °F 68.0 °F 62% 29.97 in 10.0 mi SW 8.1 mph - N/A   Scattered Clouds
12:21 PM 68.0 °F - 59.0 °F 73% 29.98 in 10.0 mi North 13.8 mph - N/A   Overcast
12:51 PM 66.9 °F - 57.9 °F 73% 29.96 in 10.0 mi NNW 12.7 mph - N/A   Mostly Cloudy
1:51 PM 64.9 °F - 55.9 °F 73% 29.95 in 10.0 mi North 17.3 mph 23.0 mph N/A   Overcast
2:51 PM 63.0 °F - 54.0 °F 72% 29.95 in 10.0 mi NNW 16.1 mph 25.3 mph N/A   Overcast
2:58 PM 62.1 °F - 55.0 °F 78% 29.96 in 10.0 mi North 16.1 mph 20.7 mph N/A   Overcast
3:30 PM 62.1 °F - 54.0 °F 75% 29.96 in 10.0 mi North 12.7 mph - N/A   Overcast
3:51 PM 61.0 °F - 53.1 °F 75% 29.96 in 10.0 mi North 13.8 mph 20.7 mph N/A   Overcast
4:28 PM 61.0 °F - 52.0 °F 72% 29.97 in 10.0 mi North 16.1 mph - N/A   Overcast
4:51 PM 59.0 °F - 51.1 °F 75% 29.98 in 10.0 mi North 18.4 mph 24.2 mph N/A   Overcast
5:51 PM 57.9 °F - 50.0 °F 75% 29.99 in 10.0 mi North 11.5 mph - N/A   Overcast
6:51 PM 55.9 °F - 51.1 °F 84% 30.01 in 8.0 mi North 13.8 mph 19.6 mph 0.00 in Rain Light Rain
7:51 PM 55.9 °F - 50.0 °F 80% 30.03 in 10.0 mi North 11.5 mph - 0.00 in   Overcast
8:19 PM 57.0 °F - 48.0 °F 72% 30.04 in 10.0 mi North 16.1 mph - N/A   Overcast
8:51 PM 57.0 °F - 48.0 °F 72% 30.04 in 10.0 mi North 12.7 mph - N/A   Overcast
9:51 PM 57.0 °F - 48.0 °F 72% 30.05 in 10.0 mi North 11.5 mph - N/A   Overcast
10:15 PM 57.0 °F - 46.9 °F 69% 30.06 in 10.0 mi North 13.8 mph - N/A   Overcast
10:43 PM 55.9 °F - 46.9 °F 72% 30.06 in 10.0 mi North 11.5 mph - N/A   Overcast
10:51 PM 57.0 °F - 46.9 °F 69% 30.06 in 10.0 mi North 15.0 mph 18.4 mph N/A   Overcast
11:51 PM 55.9 °F - 46.9 °F 72% 30.06 in 10.0 mi North 8.1 mph - N/A   Overcast